EW5171 Weather Reports


Display with metric or nautical units.
time (UTC)temp
F
wind
direction
speed
MPH
gust
MPH
rain 1hr
in
rain 24hr
in
rain mn
in
humidity
%
barometer
mb
20260504184059 50 264 3.0 9.0 0.00 0.26 0.15 74 1011.9
20260504183558 51 184 3.0 9.0 0.00 0.26 0.15 74 1011.8
20260504183104 51 314 3.0 7.0 0.00 0.26 0.15 73 1011.8
20260504182557 51 253 1.0 4.0 0.00 0.26 0.15 72 1011.8
20260504182056 52 287 1.0 10.0 0.00 0.26 0.15 72 1011.8
20260504181557 52 255 5.0 10.0 0.00 0.26 0.15 71 1011.8
20260504181057 52 325 2.0 9.0 0.00 0.26 0.15 71 1011.7
20260504180556 52 302 3.0 10.0 0.00 0.26 0.15 71 1011.6
20260504180056 53 273 3.0 13.0 0.00 0.26 0.15 70 1011.7
20260504175556 53 245 1.0 8.0 0.00 0.26 0.15 70 1011.6
20260504175056 53 275 1.0 8.0 0.00 0.26 0.15 69 1011.5
20260504174559 53 203 0.0 12.0 0.00 0.26 0.15 68 1011.5
20260504174054 54 198 2.0 11.0 0.00 0.26 0.15 68 1011.5
20260504173553 54 350 4.0 11.0 0.00 0.26 0.15 67 1011.5
20260504173057 55 297 2.0 11.0 0.00 0.26 0.15 66 1011.4
20260504172552 56 292 3.0 11.0 0.00 0.26 0.15 65 1011.3
20260504172051 57 302 1.0 9.0 0.00 0.26 0.15 64 1011.3
20260504171550 57 296 3.0 9.0 0.00 0.26 0.15 63 1011.2
20260504171050 58 219 2.0 8.0 0.00 0.26 0.15 62 1011.2
20260504170550 58 310 1.0 11.0 0.00 0.26 0.15 62 1011.2
20260504151045 60 258 4.0 16.0 0.00 0.26 0.15 55 1011.0
20260504150543 61 309 2.0 12.0 0.00 0.26 0.15 53 1010.9
20260504141041 62 234 3.0 9.0 0.00 0.26 0.15 47 1010.9
20260504140540 61 232 2.0 11.0 0.00 0.26 0.15 49 1010.8
20260504130536 63 275 3.0 11.0 0.00 0.26 0.15 39 1010.6
20260504110522 59 286 4.0 14.0 0.00 0.26 0.15 48 1010.1
20260504100508 58 202 4.0 8.0 0.00 0.26 0.15 53 1009.8
20260504081549 53 268 5.0 13.0 0.00 0.26 0.15 70 1009.0
20260504081049 53 234 1.0 10.0 0.00 0.26 0.15 74 1009.1
20260504080548 52 261 4.0 13.0 0.00 0.26 0.15 71 1009.0
20260504050512 48 277 1.0 6.0 0.00 0.25 0.14 97 1007.4
20260504050010 48 267 1.0 6.0 0.00 0.25 0.14 96 1007.3
20260504045509 48 271 1.0 3.0 0.00 0.25 0.14 97 1007.3
20260504045012 48 303 0.0 4.0 0.00 0.25 0.14 97 1007.2
20260504044518 49 295 1.0 4.0 0.00 0.25 0.14 97 1007.2
20260504044011 49 282 1.0 5.0 0.00 0.25 0.14 96 1007.2
20260504043506 49 286 1.0 3.0 0.00 0.25 0.14 97 1007.1
20260504043009 49 323 0.0 4.0 0.00 0.25 0.14 97 1007.2
20260504042504 49 257 1.0 4.0 0.00 0.25 0.14 97 1007.2
20260504042003 50 260 1.0 6.0 0.00 0.25 0.14 97 1007.2
20260504041504 50 278 1.0 5.0 0.00 0.25 0.14 97 1007.2
20260504041101 50 278 1.0 5.0 0.00 0.25 0.14 97 1007.1
20260504040600 50 278 1.0 5.0 0.01 0.25 0.14 97 1007.1
20260504040105 50 252 0.0 2.0 0.01 0.25 0.14 97 1007.1
20260504035559 50 252 0.0 2.0 0.01 0.25 0.14 97 1007.1
20260504035058 50 242 0.0 2.0 0.01 0.25 0.14 97 1007.1
20260504034612 50 242 0.0 4.0 0.01 0.25 0.14 97 1007.0
20260504034058 50 320 1.0 4.0 0.01 0.25 0.14 97 1007.1
20260504033600 50 36 0.0 3.0 0.01 0.25 0.14 97 1007.0
20260504033128 50 360 0.0 2.0 0.01 0.25 0.14 97 1007.0
20260504032558 50 312 0.0 2.0 0.02 0.25 0.14 97 1007.0
20260504032100 50 312 0.0 1.0 0.02 0.25 0.14 97 1006.9
20260504031603 50 312 0.0 1.0 0.02 0.25 0.14 97 1006.9
20260504031058 50 312 0.0 2.0 0.02 0.25 0.14 97 1006.9
20260504030557 50 312 0.0 2.0 0.01 0.24 0.13 97 1006.9
20260504030101 50 312 0.0 2.0 0.02 0.24 0.13 97 1006.8
20260504025557 50 312 0.0 1.0 0.02 0.24 0.13 97 1006.8
20260504025057 50 312 0.0 1.0 0.02 0.24 0.13 97 1006.8
20260504024557 50 312 0.0 2.0 0.02 0.24 0.13 97 1006.8
20260504024102 50 312 0.0 2.0 0.03 0.24 0.13 97 1006.7
20260504023557 50 312 0.0 1.0 0.03 0.24 0.13 97 1006.7
20260504023103 50 312 0.0 1.0 0.04 0.24 0.13 96 1006.7
20260504022558 50 312 0.0 0.0 0.03 0.24 0.13 96 1006.7
20260504022055 50 312 0.0 1.0 0.05 0.24 0.13 96 1006.7
20260504021557 50 312 0.0 1.0 0.06 0.24 0.13 96 1006.7
20260504021056 50 312 0.0 0.0 0.06 0.24 0.13 96 1006.6
20260504020556 50 312 0.0 2.0 0.07 0.24 0.13 96 1006.6
20260504020059 50 312 0.0 2.0 0.06 0.23 0.12 96 1006.7
20260504015554 50 312 0.0 1.0 0.07 0.23 0.12 96 1006.7
20260504015057 50 312 0.0 2.0 0.06 0.22 0.11 96 1006.7
20260504014554 51 312 0.0 2.0 0.06 0.22 0.11 96 1006.7
20260504014053 51 131 0.0 2.0 0.06 0.21 0.10 96 1006.7
20260504013552 51 5 0.0 2.0 0.06 0.21 0.10 96 1006.6
20260504013106 51 207 0.0 3.0 0.05 0.20 0.09 96 1006.7
20260504012552 51 205 0.0 3.0 0.05 0.20 0.09 96 1006.7
20260504012052 51 115 0.0 3.0 0.03 0.19 0.08 97 1006.6
20260504011551 51 181 0.0 1.0 0.03 0.18 0.07 97 1006.7
20260504011049 51 181 0.0 0.0 0.02 0.17 0.06 96 1006.7
20260504010549 51 181 0.0 0.0 0.02 0.17 0.06 96 1006.8
20260504010058 51 181 0.0 1.0 0.02 0.17 0.06 96 1006.9
20260504005552 51 181 0.0 1.0 0.01 0.16 0.05 96 1006.8
20260504005049 51 181 0.0 0.0 0.01 0.16 0.05 96 1006.7
20260504004603 51 181 0.0 0.0 0.02 0.16 0.05 96 1006.7
20260504004048 51 181 0.0 0.0 0.02 0.16 0.05 96 1006.8
20260504003547 51 181 0.0 0.0 0.02 0.16 0.05 96 1006.8
20260504003048 51 181 0.0 0.0 0.02 0.16 0.05 96 1006.8
20260504002547 51 181 0.0 0.0 0.02 0.16 0.05 96 1006.8
20260504002047 51 181 0.0 1.0 0.02 0.16 0.05 96 1006.9
20260504001546 51 181 0.0 1.0 0.02 0.15 0.04 96 1006.9
20260504001046 51 181 0.0 1.0 0.02 0.15 0.04 96 1007.1
20260504000545 51 181 0.0 2.0 0.02 0.15 0.04 96 1007.1
20260504000045 51 181 0.0 2.0 0.02 0.15 0.04 96 1007.1
20260503235543 51 181 0.0 1.0 0.02 0.15 0.04 96 1007.1
20260503235043 51 181 0.0 1.0 0.02 0.15 0.04 96 1007.1
20260503234546 51 181 0.0 1.0 0.02 0.14 0.03 96 1007.1
20260503234043 51 181 0.0 1.0 0.02 0.14 0.03 96 1007.2
20260503233545 51 181 0.0 0.0 0.02 0.14 0.03 96 1007.2
20260503233041 51 181 0.0 1.0 0.02 0.14 0.03 96 1007.3
20260503232545 51 181 0.0 1.0 0.02 0.14 0.03 96 1007.3
20260503232041 51 181 0.0 1.0 0.01 0.13 0.02 96 1007.3
20260503231540 51 181 0.0 1.0 0.01 0.13 0.02 96 1007.4
20260503231039 51 181 0.0 2.0 0.02 0.13 0.02 96 1007.4
20260503230539 51 181 0.0 2.0 0.01 0.13 0.02 96 1007.5
20260503230040 51 181 0.0 1.0 0.01 0.13 0.02 96 1007.5
20260503225538 51 181 0.0 2.0 0.02 0.13 0.02 96 1007.5
20260503225038 51 181 0.0 2.0 0.02 0.13 0.02 96 1007.5
20260503224538 51 181 0.0 2.0 0.02 0.13 0.02 96 1007.6
20260503224038 51 181 0.0 2.0 0.02 0.13 0.02 95 1007.7
20260503223537 51 181 1.0 2.0 0.03 0.13 0.02 95 1007.6
20260503223037 51 181 0.0 2.0 0.04 0.13 0.02 95 1007.6
20260503222536 51 181 0.0 2.0 0.05 0.13 0.02 95 1007.6
20260503222139 51 181 0.0 1.0 0.05 0.13 0.02 95 1007.6
20260503221541 51 181 0.0 1.0 0.06 0.13 0.02 95 1007.7
20260503221037 51 181 0.0 1.0 0.05 0.12 0.01 95 1007.7
20260503220535 52 181 0.0 1.0 0.06 0.12 0.01 95 1007.7
20260503220034 52 181 0.0 0.0 0.06 0.12 0.01 95 1007.8
20260503215533 52 181 0.0 0.0 0.06 0.11 0.11 95 1007.9
20260503215032 52 181 0.0 0.0 0.08 0.11 0.11 95 1007.9
20260503214534 52 181 0.0 1.0 0.09 0.10 0.10 95 1007.9
20260503214035 52 181 0.0 1.0 0.08 0.09 0.09 95 1008.1
20260503213532 52 181 0.0 0.0 0.09 0.09 0.09 95 1008.1
20260503213044 52 181 0.0 0.0 0.08 0.09 0.09 95 1008.2
20260503212532 52 181 0.0 0.0 0.07 0.08 0.08 95 1008.3
20260503212032 52 181 0.0 0.0 0.07 0.08 0.08 95 1008.4
20260503211531 52 181 0.0 1.0 0.06 0.07 0.07 95 1008.5
20260503211031 52 181 0.0 1.0 0.06 0.07 0.07 95 1008.6
20260503210533 52 181 0.0 3.0 0.06 0.06 0.06 95 1008.8
20260503210031 52 181 0.0 5.0 0.06 0.06 0.06 95 1008.8
20260503205531 52 195 2.0 7.0 0.04 0.05 0.05 94 1009.0
20260503205031 52 144 4.0 7.0 0.02 0.03 0.03 94 1009.2
20260503204545 52 169 2.0 4.0 0.01 0.02 0.02 94 1009.2
20260503204029 52 69 1.0 2.0 0.00 0.01 0.01 94 1008.7
20260503203529 52 69 0.0 0.0 0.00 0.01 0.01 94 1008.3
20260503203031 52 69 0.0 0.0 0.00 0.01 0.01 94 1008.1
20260503202529 52 69 0.0 0.0 0.00 0.01 0.01 94 1008.0
20260503202029 52 69 0.0 0.0 0.00 0.01 0.01 93 1008.0
20260503201529 52 69 0.0 0.0 0.00 0.01 0.01 93 1008.0
20260503201028 52 69 0.0 0.0 0.00 0.01 0.01 93 1008.0
20260503200528 52 69 0.0 0.0 0.00 0.01 0.01 93 1008.0
20260503200028 53 69 0.0 1.0 0.01 0.01 0.01 93 1008.0
20260503195527 53 69 0.0 1.0 0.01 0.01 0.01 93 1007.9
20260503195026 53 69 0.0 0.0 0.01 0.01 0.01 93 1008.1
20260503194526 53 69 0.0 0.0 0.01 0.01 0.01 93 1008.2
20260503194028 53 69 0.0 0.0 0.01 0.01 0.01 92 1008.2
20260503193526 53 69 0.0 0.0 0.01 0.01 0.01 92 1008.1
20260503193033 53 69 0.0 3.0 0.01 0.01 0.01 92 1008.3
20260503192525 53 69 0.0 3.0 0.01 0.01 0.01 91 1008.3
20260503192024 53 198 0.0 0.0 0.01 0.01 0.01 91 1008.3
20260503191523 53 198 0.0 0.0 0.01 0.01 0.01 90 1008.4
20260503191023 54 198 0.0 0.0 0.01 0.01 0.01 89 1008.5
20260503190522 54 198 0.0 0.0 0.01 0.01 0.01 89 1008.6
20260503190021 54 198 0.0 0.0 0.00 0.00 0.00 89 1008.7
20260503185520 55 198 0.0 0.0 0.00 0.00 0.00 89 1008.7
20260503185021 55 198 0.0 0.0 0.00 0.00 0.00 88 1008.7
20260503184533 55 198 0.0 0.0 0.00 0.00 0.00 87 1008.8